Madison, SD

3:57 PM CST on December 09, 2019 (GMT -0600)
Madison Municipal

Weather History for KMDS - October, 2019

Change the Weather History Date:

Sunday, October 20, 2019

  Actual Average Record
Temperature  
Mean Temperature 45 °F -  
Max Temperature 55 °F 58 °F 73 °F (2015)
Min Temperature 35 °F 34 °F 23 °F (2011)
Degree Days  
Heating Degree Days 20    
Moisture  
Dew Point 41 °F    
Average Humidity 82    
Maximum Humidity 100    
Minimum Humidity 51    
Precipitation  
Precipitation 0.00 in - - ()
Sea Level Pressure  
Sea Level Pressure 29.68 in    
Wind  
Wind Speed 8 mph ()    
Max Wind Speed 25 mph    
Max Gust Speed 37 mph    
Visibility 9.4 miles    
Events Rain    
Averages and records for this station are not official NWS values.
T = Trace of Precipitation, MM = Missing Value Source: Averaged Metar Reports

Daily Weather History Graph

Daily Weather History Graph

Search for Another Location

Airport or City:

Astronomy

Oct. 20, 2019 Rise Set
Actual Time 7:49 AM CDT 6:36 PM CDT
Civil Twilight 7:19 AM CDT 7:05 PM CDT
Nautical Twilight 6:46 AM CDT 7:39 PM CDT
Astronomical Twilight 6:12 AM CDT 8:12 PM CDT
Moon 11:38 PM CDT (10/20) 2:26 PM CDT (10/20)
Length of Visible Light 11h 46m
Length of Day
10h 47m
Waning Gibbous, 59% of the Moon is Illuminated
Oct 20
Waning Gibbous
Oct 21
Last Quarter
Oct 27
New
Nov 4
First Quarter
Nov 12
Full

Hourly Weather History & Observations

Time (CDT) Temp. Windchill Dew Point Humidity Pressure Visibility Wind Dir Wind Speed Gust Speed Precip Events Conditions
12:15 AM 41.0 °F - 37.4 °F 87% 29.74 in 10.0 mi Calm Calm - N/A   Clear
12:35 AM 41.0 °F 39.0 °F 37.4 °F 87% 29.74 in 10.0 mi South 3.5 mph - N/A   Clear
1:15 AM 39.2 °F 35.9 °F 39.2 °F 100% 29.73 in 10.0 mi SSE 4.6 mph - N/A   Clear
1:35 AM 39.2 °F 37.0 °F 39.2 °F 100% 29.73 in 10.0 mi SSE 3.5 mph - N/A   Clear
1:40 AM 39.2 °F - 39.2 °F 100% 29.73 in 10.0 mi Calm Calm - N/A   Clear
1:55 AM 39.2 °F 37.0 °F 39.2 °F 100% 29.73 in 10.0 mi SE 3.5 mph - N/A   Clear
2:00 AM 39.2 °F 37.0 °F 39.2 °F 100% 29.73 in 10.0 mi ESE 3.5 mph - N/A   Clear
2:15 AM 39.2 °F 37.0 °F 39.2 °F 100% 29.73 in 3.0 mi SE 3.5 mph - N/A   Clear
2:35 AM 39.2 °F 35.9 °F 39.2 °F 100% 29.73 in 10.0 mi SSE 4.6 mph - N/A   Clear
2:55 AM 39.2 °F - 39.2 °F 100% 29.73 in 10.0 mi Calm Calm - N/A   Clear
3:00 AM 39.2 °F - 39.2 °F 100% 29.73 in 10.0 mi Calm Calm - N/A   Clear
3:15 AM 39.2 °F 35.0 °F 39.2 °F 100% 29.73 in 3.0 mi East 5.8 mph - N/A   Clear
3:20 AM 35.6 °F 31.7 °F 35.6 °F 100% 29.73 in 5.0 mi East 4.6 mph - N/A   Clear
3:35 AM 37.4 °F 32.8 °F 37.4 °F 100% 29.73 in 5.0 mi SE 5.8 mph - N/A   Clear
3:55 AM 39.2 °F 35.9 °F 37.4 °F 93% 29.73 in 1.5 mi SE 4.6 mph - N/A   Clear
4:00 AM 39.2 °F 37.0 °F 37.4 °F 93% 29.73 in 2.0 mi SE 3.5 mph - N/A   Clear
4:15 AM 39.2 °F 35.9 °F 37.4 °F 93% 29.73 in 5.0 mi SE 4.6 mph - N/A   Clear
4:35 AM 39.2 °F 33.6 °F 37.4 °F 93% 29.73 in 1.8 mi SSE 8.1 mph - N/A   Clear
4:40 AM 41.0 °F 36.4 °F 37.4 °F 87% 29.73 in 7.0 mi SE 6.9 mph - N/A   Clear
4:55 AM 39.2 °F 35.9 °F 37.4 °F 93% 29.72 in 10.0 mi SE 4.6 mph - N/A   Clear
5:00 AM 37.4 °F 33.8 °F 37.4 °F 100% 29.72 in 10.0 mi SE 4.6 mph - N/A   Clear
5:15 AM 39.2 °F 33.6 °F 35.6 °F 87% 29.72 in 10.0 mi SE 8.1 mph - N/A   Clear
5:20 AM 39.2 °F 33.6 °F 37.4 °F 93% 29.72 in 10.0 mi SE 8.1 mph - N/A   Clear
5:35 AM 39.2 °F 35.0 °F 37.4 °F 93% 29.72 in 10.0 mi SE 5.8 mph - N/A   Clear
5:40 AM 39.2 °F 37.0 °F 37.4 °F 93% 29.72 in 10.0 mi SE 3.5 mph - N/A   Clear
5:55 AM 39.2 °F 37.0 °F 35.6 °F 87% 29.72 in 10.0 mi SE 3.5 mph - N/A   Clear
6:15 AM 37.4 °F 33.8 °F 35.6 °F 93% 29.72 in 10.0 mi ESE 4.6 mph - N/A   Clear
6:20 AM 39.2 °F 35.9 °F 35.6 °F 87% 29.72 in 10.0 mi ESE 4.6 mph - N/A   Clear
6:35 AM 39.2 °F 35.9 °F 35.6 °F 87% 29.72 in 10.0 mi SE 4.6 mph - N/A   Clear
6:55 AM 39.2 °F 37.0 °F 37.4 °F 93% 29.72 in 10.0 mi SE 3.5 mph - N/A   Clear
7:15 AM 39.2 °F 35.0 °F 37.4 °F 93% 29.72 in 10.0 mi SE 5.8 mph - N/A   Mostly Cloudy
7:35 AM 39.2 °F 34.2 °F 37.4 °F 93% 29.72 in 10.0 mi SE 6.9 mph - N/A   Overcast
7:40 AM 39.2 °F 33.6 °F 37.4 °F 93% 29.72 in 10.0 mi SE 8.1 mph - N/A   Mostly Cloudy
7:55 AM 41.0 °F 35.2 °F 39.2 °F 93% 29.72 in 10.0 mi SE 9.2 mph - N/A   Mostly Cloudy
8:15 AM 41.0 °F 35.8 °F 39.2 °F 93% 29.71 in 10.0 mi SE 8.1 mph - N/A   Partly Cloudy
8:35 AM 41.0 °F 35.8 °F 39.2 °F 93% 29.71 in 10.0 mi SE 8.1 mph - N/A   Partly Cloudy
8:40 AM 41.0 °F 35.8 °F 39.2 °F 93% 29.72 in 10.0 mi SE 8.1 mph - N/A   Clear
8:55 AM 41.0 °F 36.4 °F 39.2 °F 93% 29.72 in 10.0 mi SE 6.9 mph - N/A   Scattered Clouds
9:15 AM 44.6 °F 40.2 °F 39.2 °F 81% 29.73 in 10.0 mi SE 8.1 mph 17.3 mph N/A   Scattered Clouds
9:20 AM 44.6 °F 40.2 °F 39.2 °F 81% 29.73 in 10.0 mi SSE 8.1 mph 17.3 mph N/A   Scattered Clouds
9:35 AM 44.6 °F 40.2 °F 39.2 °F 81% 29.73 in 10.0 mi SSE 8.1 mph - N/A   Partly Cloudy
9:40 AM 44.6 °F 40.2 °F 41.0 °F 87% 29.74 in 10.0 mi SSE 8.1 mph - N/A   Partly Cloudy
9:55 AM 44.6 °F 40.2 °F 41.0 °F 87% 29.74 in 10.0 mi SE 8.1 mph - N/A   Partly Cloudy
10:15 AM 44.6 °F 40.2 °F 42.8 °F 93% 29.75 in 10.0 mi SSE 8.1 mph - N/A   Scattered Clouds
10:20 AM 44.6 °F 39.7 °F 42.8 °F 93% 29.75 in 10.0 mi SSE 9.2 mph - N/A   Scattered Clouds
10:35 AM 46.4 °F 41.5 °F 41.0 °F 81% 29.75 in 10.0 mi SE 10.4 mph - N/A   Partly Cloudy
10:40 AM 46.4 °F 42.9 °F 41.0 °F 81% 29.75 in 10.0 mi SE 6.9 mph - N/A   Partly Cloudy
10:55 AM 48.2 °F - 41.0 °F 76% 29.75 in 10.0 mi SE 9.2 mph - N/A   Clear
11:00 AM 48.2 °F - 41.0 °F 76% 29.75 in 10.0 mi SE 9.2 mph - N/A   Clear
11:15 AM 48.2 °F - 42.8 °F 82% 29.75 in 10.0 mi SE 8.1 mph - N/A   Clear
11:35 AM 48.2 °F - 42.8 °F 82% 29.74 in 10.0 mi ESE 6.9 mph - N/A   Clear
11:40 AM 48.2 °F - 42.8 °F 82% 29.74 in 10.0 mi ESE 8.1 mph - N/A   Clear
11:55 AM 50.0 °F - 44.6 °F 82% 29.75 in 10.0 mi SSE 6.9 mph - N/A   Partly Cloudy
12:00 PM 50.0 °F - 44.6 °F 82% 29.75 in 10.0 mi SE 9.2 mph - N/A   Clear
12:15 PM 50.0 °F - 44.6 °F 82% 29.74 in 10.0 mi SE 9.2 mph - N/A   Clear
12:20 PM 50.0 °F - 44.6 °F 82% 29.74 in 10.0 mi SE 10.4 mph - N/A   Clear
12:35 PM 51.8 °F - 44.6 °F 76% 29.73 in 10.0 mi SE 10.4 mph - N/A   Clear
12:55 PM 53.6 °F - 44.6 °F 72% 29.73 in 10.0 mi SE 10.4 mph - N/A   Clear
1:00 PM 53.6 °F - 44.6 °F 72% 29.73 in 10.0 mi SE 12.7 mph 18.4 mph N/A   Clear
1:15 PM 53.6 °F - 44.6 °F 72% 29.72 in 10.0 mi SE 12.7 mph - N/A   Clear
1:35 PM 53.6 °F - 44.6 °F 72% 29.71 in 10.0 mi SE 16.1 mph - N/A   Clear
1:55 PM 53.6 °F - 44.6 °F 72% 29.72 in 10.0 mi SSE 15.0 mph 21.9 mph N/A   Clear
2:15 PM 55.4 °F - 46.4 °F 72% 29.70 in 10.0 mi SE 15.0 mph 20.7 mph N/A   Clear
2:35 PM 55.4 °F - 44.6 °F 67% 29.69 in 10.0 mi SE 17.3 mph - N/A   Clear
2:55 PM 55.4 °F - 44.6 °F 67% 29.69 in 10.0 mi SSE 11.5 mph - N/A   Clear
3:00 PM 55.4 °F - 46.4 °F 72% 29.69 in 10.0 mi SSE 11.5 mph - N/A   Clear
3:15 PM 55.4 °F - 44.6 °F 67% 29.67 in 10.0 mi SE 15.0 mph - N/A   Clear
3:20 PM 55.4 °F - 44.6 °F 67% 29.67 in 10.0 mi SE 12.7 mph - N/A   Clear
3:35 PM 55.4 °F - 44.6 °F 67% 29.66 in 10.0 mi SE 18.4 mph 21.9 mph N/A   Clear
3:55 PM 55.4 °F - 44.6 °F 67% 29.64 in 10.0 mi ESE 17.3 mph 20.7 mph N/A   Clear
4:15 PM 55.4 °F - 44.6 °F 67% 29.64 in 10.0 mi SE 20.7 mph 27.6 mph N/A   Clear
4:20 PM 55.4 °F - 44.6 °F 67% 29.63 in 10.0 mi ESE 19.6 mph 27.6 mph N/A   Clear
4:35 PM 55.4 °F - 41.0 °F 58% 29.62 in 10.0 mi SE 21.9 mph 28.8 mph N/A   Scattered Clouds
4:55 PM 55.4 °F - 41.0 °F 58% 29.62 in 10.0 mi SE 21.9 mph 28.8 mph N/A   Mostly Cloudy
5:15 PM 55.4 °F - 41.0 °F 58% 29.62 in 10.0 mi SE 18.4 mph 26.5 mph N/A   Mostly Cloudy
5:35 PM 55.4 °F - 39.2 °F 54% 29.61 in 10.0 mi ESE 21.9 mph 28.8 mph N/A   Overcast
5:55 PM 55.4 °F - 39.2 °F 54% 29.61 in 10.0 mi SE 20.7 mph 29.9 mph N/A   Overcast
6:00 PM 55.4 °F - 39.2 °F 54% 29.61 in 10.0 mi SE 18.4 mph 29.9 mph N/A   Overcast
6:15 PM 55.4 °F - 39.2 °F 54% 29.60 in 10.0 mi ESE 17.3 mph 24.2 mph N/A   Overcast
6:20 PM 55.4 °F - 37.4 °F 51% 29.59 in 10.0 mi ESE 18.4 mph 23.0 mph N/A   Overcast
6:35 PM 55.4 °F - 37.4 °F 51% 29.57 in 10.0 mi ESE 20.7 mph 28.8 mph N/A   Overcast
6:55 PM 55.4 °F - 37.4 °F 51% 29.58 in 10.0 mi ESE 17.3 mph 28.8 mph N/A   Overcast
7:00 PM 53.6 °F - 39.2 °F 58% 29.58 in 10.0 mi ESE 19.6 mph 28.8 mph N/A   Overcast
7:15 PM 53.6 °F - 39.2 °F 58% 29.56 in 10.0 mi ESE 21.9 mph 27.6 mph N/A   Overcast
7:35 PM 53.6 °F - 41.0 °F 62% 29.56 in 10.0 mi SE 25.3 mph 33.4 mph N/A   Mostly Cloudy
7:40 PM 53.6 °F - 39.2 °F 58% 29.57 in 10.0 mi SE 23.0 mph 32.2 mph N/A   Mostly Cloudy
7:55 PM 53.6 °F - 39.2 °F 58% 29.56 in 10.0 mi SE 23.0 mph 32.2 mph N/A   Mostly Cloudy
8:00 PM 53.6 °F - 39.2 °F 58% 29.57 in 10.0 mi SE 23.0 mph 36.8 mph N/A   Mostly Cloudy
8:15 PM 53.6 °F - 39.2 °F 58% 29.57 in 10.0 mi SE 23.0 mph 31.1 mph N/A   Overcast
8:35 PM 53.6 °F - 41.0 °F 62% 29.58 in 10.0 mi SSE 24.2 mph 36.8 mph N/A   Overcast
8:40 PM 53.6 °F - 44.6 °F 72% 29.58 in 10.0 mi SSE 19.6 mph 33.4 mph N/A Rain Light Rain
8:55 PM 48.2 °F - 48.2 °F 100% 29.60 in 2.5 mi SSE 24.2 mph 34.5 mph N/A Rain Light Rain
9:15 PM 48.2 °F - 48.2 °F 100% 29.60 in 10.0 mi SE 19.6 mph 33.4 mph N/A   Overcast
9:35 PM 48.2 °F - 48.2 °F 100% 29.59 in 10.0 mi SE 18.4 mph 25.3 mph N/A   Overcast
9:55 PM 48.2 °F - 48.2 °F 100% 29.59 in 10.0 mi SE 17.3 mph 24.2 mph N/A   Overcast
10:00 PM 48.2 °F - 48.2 °F 100% 29.59 in 10.0 mi SE 17.3 mph 25.3 mph N/A   Overcast
10:15 PM 48.2 °F - 48.2 °F 100% 29.59 in 10.0 mi SE 19.6 mph 25.3 mph N/A   Overcast
10:35 PM 48.2 °F - 48.2 °F 100% 29.58 in 10.0 mi SE 16.1 mph 23.0 mph N/A   Mostly Cloudy
10:40 PM 48.2 °F - 48.2 °F 100% 29.58 in 10.0 mi SE 13.8 mph 20.7 mph N/A   Overcast
10:55 PM 46.4 °F 39.8 °F 46.4 °F 100% 29.56 in 10.0 mi ESE 16.1 mph 23.0 mph N/A   Overcast
11:15 PM 46.4 °F 39.0 °F 46.4 °F 100% 29.55 in 10.0 mi SE 19.6 mph 26.5 mph N/A   Overcast
11:35 PM 46.4 °F 38.7 °F 46.4 °F 100% 29.54 in 10.0 mi SE 20.7 mph 25.3 mph N/A   Mostly Cloudy
11:40 PM 46.4 °F 38.7 °F 46.4 °F 100% 29.54 in 10.0 mi SE 20.7 mph 26.5 mph N/A   Mostly Cloudy
11:55 PM 46.4 °F 39.8 °F 46.4 °F 100% 29.54 in 10.0 mi SE 16.1 mph 25.3 mph N/A Rain Light Rain